FW5736 Weather Reports


time (UTC)temp
F
wind
direction
speed
knots
gust
knots
rain 1hr
in
rain 24hr
in
rain mn
in
humidity
%
barometer
mb
20260509090104 61 97 0.0 0.0 0.00 0.00 0.00 74 1024.4
20260509085605 61 97 0.0 0.0 0.00 0.00 0.00 74 1024.4
20260509085105 61 97 0.0 0.0 0.00 0.00 0.00 74 1024.3
20260509084604 61 97 0.0 0.0 0.00 0.00 0.00 74 1024.3
20260509084105 61 97 0.0 0.0 0.00 0.00 0.00 74 1024.3
20260509083605 61 97 0.0 0.0 0.00 0.00 0.00 73 1024.2
20260509083105 61 97 0.0 0.0 0.00 0.00 0.00 73 1024.2
20260509082604 62 97 0.0 0.0 0.00 0.00 0.00 73 1024.1
20260509081605 62 97 0.0 0.0 0.00 0.00 0.00 72 1024.0
20260509081105 62 97 0.0 0.0 0.00 0.00 0.00 72 1023.9
20260509080605 62 97 0.0 0.0 0.00 0.00 0.00 71 1023.9
20260509075605 62 97 0.0 0.0 0.00 0.00 0.00 71 1023.7
20260509075105 63 97 0.0 0.0 0.00 0.00 0.00 70 1023.6
20260509074605 63 97 0.0 0.0 0.00 0.00 0.00 70 1023.6
20260509074105 63 97 0.0 0.0 0.00 0.00 0.00 70 1023.6
20260509073605 63 97 0.0 0.0 0.00 0.00 0.00 69 1023.5
20260509073104 63 97 0.0 0.0 0.00 0.00 0.00 69 1023.5
20260509072105 64 97 0.0 0.0 0.00 0.00 0.00 69 1023.4
20260509071605 64 97 0.0 0.0 0.00 0.00 0.00 69 1023.4
20260509071105 64 97 0.0 0.0 0.00 0.00 0.00 68 1023.3
20260509070604 64 97 0.0 0.0 0.00 0.00 0.00 68 1023.3
20260509070105 64 97 0.0 0.0 0.00 0.00 0.00 67 1023.2
20260509065605 64 97 0.0 0.0 0.00 0.00 0.00 67 1023.1
20260509065105 65 98 0.0 0.0 0.00 0.00 0.00 66 1023.0
20260509064605 65 97 0.0 0.0 0.00 0.00 0.00 66 1023.0
20260509063604 65 97 0.0 0.0 0.00 0.00 0.00 64 1022.9
20260509063104 65 97 0.0 0.0 0.00 0.00 0.00 64 1022.9
20260509062604 66 97 0.0 0.0 0.00 0.00 0.00 63 1022.8
20260509062105 66 97 0.0 0.0 0.00 0.00 0.00 63 1022.8
20260509061604 66 110 0.0 0.0 0.00 0.00 0.00 62 1022.8
20260509061104 66 111 0.0 0.0 0.00 0.00 0.00 61 1022.8
20260509060605 66 110 0.0 0.0 0.00 0.00 0.00 61 1022.7
20260509060105 67 111 0.0 0.0 0.00 0.00 0.00 61 1022.7
20260509055605 67 110 0.0 0.0 0.00 0.00 0.00 61 1022.6
20260509055105 67 111 0.0 0.0 0.00 0.00 0.00 61 1022.5
20260509054605 67 117 0.0 0.0 0.00 0.00 0.00 61 1022.5
20260509054104 67 117 0.0 0.0 0.00 0.00 0.00 61 1022.5
20260509053604 67 122 0.0 0.0 0.00 0.00 0.00 61 1022.4
20260509052104 67 48 0.0 0.9 0.00 0.00 0.00 61 1022.4
20260509051604 67 51 0.0 2.6 0.00 0.00 0.00 61 1022.3
20260509051105 67 74 0.9 2.6 0.00 0.00 0.00 61 1022.3
20260509050105 67 106 0.0 0.0 0.00 0.00 0.00 60 1022.3
20260509045605 67 0 0.0 0.9 0.00 0.00 0.00 60 1022.3
20260509044604 67 87 0.0 0.0 0.00 0.00 0.00 59 1022.2
20260509044104 68 87 0.0 0.0 0.00 0.00 0.00 60 1022.2
20260509043104 68 91 0.0 1.7 0.00 0.00 0.00 58 1022.2
20260509042605 68 88 0.0 0.0 0.00 0.00 0.00 58 1022.1
20260509042104 68 59 0.0 0.9 0.00 0.00 0.00 59 1022.1
20260509041605 68 61 0.0 2.6 0.00 0.00 0.00 58 1022.1
20260509041105 68 91 0.0 2.6 0.00 0.00 0.00 58 1022.1
20260509040604 68 126 0.0 0.0 0.00 0.00 0.00 57 1022.0
20260509040104 69 125 0.0 4.3 0.00 0.00 0.00 56 1022.0
20260509035604 69 134 0.0 2.6 0.00 0.00 0.00 55 1022.0
20260509035104 69 71 0.9 4.3 0.00 0.00 0.00 55 1022.0
20260509034604 69 135 0.9 4.3 0.00 0.00 0.00 56 1022.1
20260509034105 69 72 0.0 1.7 0.00 0.00 0.00 56 1022.1
20260509033605 69 52 0.9 5.2 0.00 0.00 0.00 56 1022.2
20260509033105 69 130 0.0 2.6 0.00 0.00 0.00 55 1022.2
20260509031104 69 1 0.0 0.0 0.00 0.00 0.00 57 1022.3
20260509030605 69 359 0.0 2.6 0.00 0.00 0.00 55 1022.4
20260509030104 69 1 0.0 0.0 0.00 0.00 0.00 56 1022.4
20260509025605 69 47 0.0 4.3 0.00 0.00 0.00 56 1022.5
20260509025105 69 37 1.7 7.0 0.00 0.00 0.00 55 1022.6
20260509024605 69 78 0.0 0.0 0.00 0.00 0.00 56 1022.6
20260509024105 69 110 0.0 2.6 0.00 0.00 0.00 56 1022.7
20260509023604 69 129 0.0 0.0 0.00 0.00 0.00 55 1022.8
20260509023104 69 132 0.0 0.9 0.00 0.00 0.00 55 1022.9
20260509022604 69 139 0.0 2.6 0.00 0.00 0.00 54 1022.9
20260509021604 70 98 0.0 2.6 0.00 0.00 0.00 53 1023.0
20260509021104 70 92 0.0 1.7 0.00 0.00 0.00 54 1023.1
20260509020104 70 0 0.0 4.3 0.00 0.00 0.00 54 1023.2
20260509015105 69 359 0.9 4.3 0.00 0.00 0.00 54 1023.4
20260509014605 69 359 0.9 5.2 0.00 0.00 0.00 55 1023.4
20260509014105 69 359 0.0 0.0 0.00 0.00 0.00 54 1023.5
20260509012604 68 359 0.0 5.2 0.00 0.00 0.00 56 1023.6
20260509012104 68 9 0.9 5.2 0.00 0.00 0.00 57 1023.6
20260509011604 67 0 1.7 7.0 0.00 0.00 0.00 56 1023.6
20260509011104 67 135 0.9 5.2 0.00 0.00 0.00 58 1023.6
20260509010605 67 19 2.6 6.1 0.00 0.00 0.00 58 1023.7
20260509010105 66 16 0.0 5.2 0.00 0.00 0.00 59 1023.7
20260509005604 66 0 0.0 7.0 0.00 0.00 0.00 58 1023.8
20260509005104 66 0 0.9 7.0 0.00 0.00 0.00 60 1023.8
20260509004104 65 359 1.7 5.2 0.00 0.00 0.00 60 1023.9
20260509003604 64 359 4.3 7.0 0.00 0.00 0.00 61 1023.9
20260509003104 64 0 2.6 5.2 0.00 0.00 0.00 63 1023.9
20260509002604 64 30 1.7 4.3 0.00 0.00 0.00 65 1023.9
20260509002104 63 1 3.5 6.1 0.00 0.00 0.00 66 1023.9
20260509001604 63 57 0.9 5.2 0.00 0.00 0.00 67 1023.9
20260509001104 62 9 3.5 7.0 0.00 0.00 0.00 67 1023.9
20260509000604 62 0 0.0 0.9 0.00 0.00 0.00 68 1023.9
20260509000105 62 10 0.9 4.3 0.00 0.00 0.00 68 1023.9
20260508235604 61 8 1.7 5.2 0.00 0.00 0.00 70 1024.0
20260508235104 61 359 0.0 2.6 0.00 0.00 0.00 71 1024.0
20260508234604 61 359 0.0 2.6 0.00 0.00 0.00 70 1024.0
20260508234104 60 359 0.0 0.0 0.00 0.00 0.00 72 1024.0
20260508233604 60 359 0.9 2.6 0.00 0.00 0.00 73 1024.1
20260508233104 60 359 0.0 2.6 0.00 0.00 0.00 74 1024.1
20260508232604 59 359 0.0 2.6 0.00 0.00 0.00 74 1024.1
20260508232105 59 359 0.9 2.6 0.00 0.00 0.00 75 1024.0
20260508231103 58 359 0.0 1.7 0.00 0.00 0.00 76 1024.0
20260508230604 58 359 1.7 4.3 0.00 0.00 0.00 76 1024.0
20260508230105 58 359 0.0 0.0 0.00 0.00 0.00 77 1024.0
20260508225604 58 359 0.0 0.0 0.00 0.00 0.00 77 1024.1
20260508225104 57 359 0.9 2.6 0.00 0.00 0.00 78 1024.0
20260508224104 57 359 0.9 2.6 0.00 0.00 0.00 79 1024.0
20260508223604 56 359 0.9 2.6 0.00 0.00 0.00 79 1023.9
20260508223104 56 359 0.0 2.6 0.00 0.00 0.00 79 1023.9
20260508222104 55 359 0.0 0.0 0.00 0.00 0.00 80 1023.9
20260508221604 55 359 0.0 2.6 0.00 0.00 0.00 80 1023.8
20260508221104 55 359 0.0 0.0 0.00 0.00 0.00 81 1023.8
20260508220604 54 359 0.0 0.9 0.00 0.00 0.00 81 1023.8
20260508220104 54 359 0.0 0.0 0.00 0.00 0.00 81 1023.7
20260508215604 54 359 0.0 0.0 0.00 0.00 0.00 82 1023.7
20260508215104 54 359 0.0 0.0 0.00 0.00 0.00 82 1023.6
20260508214605 54 359 0.0 0.0 0.00 0.00 0.00 82 1023.5
20260508214104 53 359 0.0 0.0 0.00 0.00 0.00 82 1023.5
20260508213604 53 359 0.0 0.0 0.00 0.00 0.00 82 1023.5
20260508213104 53 359 0.0 0.0 0.00 0.00 0.00 82 1023.5
20260508212104 53 359 0.0 0.0 0.00 0.00 0.00 81 1023.3
20260508211604 53 359 0.0 0.0 0.00 0.00 0.00 81 1023.2
20260508211104 53 359 0.0 0.0 0.00 0.00 0.00 80 1023.2
20260508210604 54 359 0.0 0.0 0.00 0.00 0.00 80 1023.1
20260508210104 54 359 0.0 0.0 0.00 0.00 0.00 80 1023.0
20260508205605 54 359 0.0 2.6 0.00 0.00 0.00 79 1023.0
20260508204604 54 359 0.0 1.7 0.00 0.00 0.00 78 1022.8
20260508204104 54 0 0.0 4.3 0.00 0.00 0.00 78 1022.7
20260508203604 55 359 0.0 4.3 0.00 0.00 0.00 77 1022.7
20260508203104 55 359 0.0 0.0 0.00 0.00 0.00 77 1022.6
20260508202104 55 359 0.0 2.6 0.00 0.00 0.00 76 1022.4
20260508201604 55 359 0.0 2.6 0.00 0.00 0.00 76 1022.4
20260508201104 56 359 0.0 0.0 0.00 0.00 0.00 76 1022.3
20260508200604 56 2 0.0 0.0 0.00 0.00 0.00 75 1022.3
20260508200104 56 4 0.0 1.7 0.00 0.00 0.00 75 1022.2
20260508195604 56 8 0.0 0.0 0.00 0.00 0.00 74 1022.2
20260508195104 56 6 0.0 0.0 0.00 0.00 0.00 74 1022.1
20260508194604 57 5 0.0 0.0 0.00 0.00 0.00 74 1022.0
20260508194104 57 5 0.0 0.0 0.00 0.00 0.00 73 1022.0
20260508193604 57 4 0.0 0.0 0.00 0.00 0.00 73 1021.9
20260508193104 57 10 0.0 0.0 0.00 0.00 0.00 73 1021.8
20260508192604 57 8 0.0 0.0 0.00 0.00 0.00 73 1021.7
20260508192104 57 7 0.0 0.0 0.00 0.00 0.00 73 1021.6
20260508190104 57 13 0.0 0.0 0.00 0.00 0.00 73 1021.4
20260508185604 57 15 0.0 0.9 0.00 0.00 0.00 73 1021.4
20260508185104 57 359 0.9 4.3 0.00 0.00 0.00 73 1021.4
20260508184604 57 3 1.7 5.2 0.00 0.00 0.00 73 1021.4
20260508184104 57 1 2.6 6.1 0.00 0.00 0.00 73 1021.4
20260508183104 57 359 1.7 4.3 0.00 0.00 0.00 73 1021.4
20260508182104 57 0 0.0 0.0 0.00 0.00 0.00 73 1021.2
20260508181604 58 0 0.0 0.0 0.00 0.00 0.00 73 1021.2
20260508181104 58 359 2.6 5.2 0.00 0.00 0.00 73 1021.1
20260508180604 58 12 2.6 5.2 0.00 0.00 0.00 73 1021.1
20260508180104 58 9 3.5 6.1 0.00 0.00 0.00 73 1021.1
20260508175604 58 1 4.3 7.8 0.00 0.00 0.00 73 1021.1
20260508175104 58 3 4.3 7.8 0.00 0.00 0.00 73 1021.1
20260508174604 58 0 6.1 10.4 0.00 0.00 0.00 73 1021.0
20260508173104 58 5 1.7 6.1 0.00 0.00 0.00 72 1021.0
20260508172604 58 1 2.6 5.2 0.00 0.00 0.00 72 1021.0
20260508172104 58 136 3.5 6.1 0.00 0.00 0.00 72 1021.0
20260508171604 58 112 2.6 7.0 0.00 0.00 0.00 72 1021.0
20260508170603 58 1 4.3 7.8 0.00 0.00 0.00 72 1021.0
20260508170103 58 27 6.1 10.4 0.00 0.00 0.00 72 1021.1
20260508165604 58 8 5.2 7.0 0.00 0.00 0.00 72 1021.1
20260508165104 58 24 4.3 7.8 0.00 0.00 0.00 72 1021.1
20260508163605 58 16 5.2 10.4 0.00 0.00 0.00 71 1021.0
20260508163105 58 359 5.2 7.8 0.00 0.00 0.00 71 1021.0
20260508162605 58 359 5.2 8.7 0.00 0.00 0.00 71 1021.0
20260508161605 58 7 2.6 7.0 0.00 0.00 0.00 71 1021.0
20260508161105 58 359 1.7 4.3 0.00 0.00 0.00 71 1020.9
20260508160605 58 0 4.3 8.7 0.00 0.00 0.00 71 1021.0
20260508160105 58 359 1.7 7.0 0.00 0.00 0.00 70 1021.0
20260508155605 58 359 3.5 6.1 0.00 0.00 0.00 70 1021.0
20260508154105 58 57 4.3 7.8 0.00 0.00 0.00 70 1020.9
20260508153605 58 24 5.2 10.4 0.00 0.00 0.00 70 1020.9
20260508153105 58 0 5.2 7.0 0.00 0.00 0.00 70 1021.0
20260508152606 58 137 5.2 8.7 0.00 0.00 0.00 70 1021.0
20260508151605 59 1 4.3 8.7 0.00 0.00 0.00 69 1021.0
20260508150105 58 359 3.5 7.0 0.00 0.00 0.00 69 1021.0
20260508145605 58 4 4.3 8.7 0.00 0.00 0.00 69 1021.0
20260508144604 58 0 4.3 7.0 0.00 0.00 0.00 69 1020.9
20260508144105 59 86 5.2 8.7 0.00 0.00 0.00 69 1020.9
20260508143605 59 129 2.6 7.0 0.00 0.00 0.00 68 1020.9
20260508143105 59 17 3.5 7.8 0.00 0.00 0.00 68 1020.8
20260508142605 59 80 5.2 8.7 0.00 0.00 0.00 68 1020.8
20260508142105 59 12 6.1 10.4 0.00 0.00 0.00 68 1020.8
20260508141605 59 6 5.2 8.7 0.00 0.00 0.00 68 1020.8
20260508140605 59 59 4.3 10.4 0.00 0.00 0.00 68 1020.7
20260508140105 59 109 5.2 10.4 0.00 0.00 0.00 67 1020.8
20260508135105 59 4 5.2 11.3 0.00 0.00 0.00 67 1020.7
20260508134605 59 7 6.1 10.4 0.00 0.00 0.00 67 1020.7
20260508133605 59 65 5.2 11.3 0.00 0.00 0.00 67 1020.7
20260508133105 59 15 6.1 12.2 0.00 0.00 0.00 66 1020.6
20260508132605 59 39 6.1 11.3 0.00 0.00 0.00 66 1020.7
20260508132105 59 10 6.1 10.4 0.00 0.00 0.00 66 1020.7
20260508131105 59 4 7.0 11.3 0.00 0.00 0.00 66 1020.6
20260508130605 59 31 6.1 11.3 0.00 0.00 0.00 66 1020.5
20260508125605 59 1 6.1 13.0 0.00 0.00 0.00 66 1020.6
20260508124605 60 2 5.2 10.4 0.00 0.00 0.00 65 1020.6
20260508124105 60 3 5.2 13.0 0.00 0.00 0.00 65 1020.6
20260508123605 60 30 5.2 11.3 0.00 0.00 0.00 65 1020.7
20260508123105 60 16 8.7 14.8 0.00 0.00 0.00 65 1020.7
20260508122605 60 1 6.1 10.4 0.00 0.00 0.00 65 1020.7
20260508122105 60 23 5.2 12.2 0.00 0.00 0.00 65 1020.6
20260508121105 60 24 7.0 15.6 0.00 0.00 0.00 64 1020.6
20260508120605 60 0 5.2 10.4 0.00 0.00 0.00 64 1020.6
20260508120105 60 4 6.1 13.0 0.00 0.00 0.00 64 1020.6
20260508115605 60 0 6.1 13.0 0.00 0.00 0.00 64 1020.6
20260508115105 60 1 7.0 14.8 0.00 0.00 0.00 64 1020.6
20260508114605 60 6 5.2 10.4 0.00 0.00 0.00 64 1020.5
20260508113605 60 9 5.2 12.2 0.00 0.00 0.00 64 1020.4
20260508112605 60 2 7.0 13.9 0.00 0.00 0.00 64 1020.3
20260508112104 60 2 7.8 14.8 0.00 0.00 0.00 64 1020.3
20260508111605 60 37 5.2 12.2 0.00 0.00 0.00 64 1020.3
20260508110605 60 359 7.0 12.2 0.00 0.00 0.00 64 1020.3
20260508110105 60 2 7.8 15.6 0.00 0.00 0.00 64 1020.2
20260508105605 60 26 6.1 13.9 0.00 0.00 0.00 64 1020.2
20260508105105 60 25 6.1 17.4 0.00 0.00 0.00 64 1020.1
20260508104605 60 6 8.7 13.9 0.00 0.00 0.00 64 1019.9
20260508104105 60 14 7.0 13.0 0.00 0.00 0.00 64 1020.0
20260508103105 60 41 7.0 15.6 0.00 0.00 0.00 64 1019.8
20260508102104 60 12 8.7 18.2 0.00 0.00 0.00 64 1019.6
20260508101605 60 0 7.8 14.8 0.00 0.00 0.00 64 1019.6
20260508101105 60 11 7.8 14.8 0.00 0.00 0.00 64 1019.5
20260508100605 60 359 6.1 12.2 0.00 0.00 0.00 64 1019.5
20260508100104 60 1 7.8 18.2 0.00 0.00 0.00 64 1019.5
20260508095105 60 7 8.7 13.9 0.00 0.00 0.00 64 1019.6
20260508094604 60 5 10.4 17.4 0.00 0.00 0.00 64 1019.5
20260508093605 60 0 7.8 13.9 0.00 0.00 0.00 64 1019.3
20260508093105 60 1 8.7 15.6 0.00 0.00 0.00 64 1019.3
20260508092604 60 6 7.8 17.4 0.00 0.00 0.00 64 1019.2
20260508091604 60 13 6.1 13.0 0.00 0.00 0.00 64 1019.1
20260508091104 60 4 10.4 21.7 0.00 0.00 0.00 63 1019.1
20260508090605 60 0 7.8 17.4 0.00 0.00 0.00 63 1019.0